This is the latest recevied weather packets stored in our database for station/object N5ATR. If no packets are shown the sender has not sent any weather packets the latest 10 day(s).
| Time | Temp. | Humidity | Pressure | Rain* | Wind** | Luminosity | Snow |
|---|---|---|---|---|---|---|---|
| 1777998338 | 10° C | 61% | 1011.8 hPa | 0 mm | - | 200 W/m² | - |
| 1777998036 | 10° C | 60% | 1011.7 hPa | 0 mm | - | 210 W/m² | - |
| 1777997732 | 10° C | 61% | 1012.3 hPa | 0 mm | - | 183 W/m² | - |
| 1777997429 | 9.44° C | 61% | 1011.8 hPa | 0 mm | - | 227 W/m² | - |
| 1777997127 | 9.44° C | 60% | 1012.1 hPa | 0 mm | - | 186 W/m² | - |
| 1777996824 | 10° C | 59% | 1011.8 hPa | 0 mm | - | 173 W/m² | - |
| 1777996520 | 10° C | 60% | 1011.8 hPa | 0 mm | - | 207 W/m² | - |
| 1777996217 | 9.44° C | 61% | 1012.2 hPa | 0 mm | - | 255 W/m² | - |
| 1777995913 | 10° C | 60% | 1012.2 hPa | 0 mm | - | 206 W/m² | - |
| 1777995609 | 10° C | 61% | 1012.2 hPa | 0 mm | - | 181 W/m² | - |
| 1777995307 | 10° C | 59% | 1012.2 hPa | 0 mm | - | 179 W/m² | - |
| 1777995003 | 10° C | 59% | 1012.2 hPa | 0 mm | - | 225 W/m² | - |
| 1777994701 | 10° C | 60% | 1012.1 hPa | 0 mm | - | 282 W/m² | - |
| 1777994396 | 9.44° C | 59% | 1011.9 hPa | 0 mm | - | 193 W/m² | - |
| 1777994091 | 9.44° C | 61% | 1012.1 hPa | 0 mm | - | 186 W/m² | - |
| 1777993789 | 8.89° C | 62% | 1012.3 hPa | 0 mm | - | 153 W/m² | - |
| 1777993486 | 8.89° C | 62% | 1012.1 hPa | 0 mm | - | 154 W/m² | - |
| 1777993185 | 8.89° C | 62% | 1012.1 hPa | 0 mm | - | 141 W/m² | - |
| 1777992883 | 8.89° C | 60% | 1012.1 hPa | 0 mm | - | 123 W/m² | - |
| 1777992581 | 8.89° C | 61% | 1012.2 hPa | 0 mm | - | 92 W/m² | - |
| 1777992279 | 8.89° C | 62% | 1012.2 hPa | 0 mm | - | 86 W/m² | - |
| 1777991976 | 9.44° C | 62% | 1012.2 hPa | 0 mm | - | 77 W/m² | - |
| 1777991674 | 8.89° C | 62% | 1012.4 hPa | 0 mm | - | 88 W/m² | - |
| 1777991371 | 8.89° C | 62% | 1012.3 hPa | 0 mm | - | 72 W/m² | - |
| 1777991068 | 8.89° C | 61% | 1012.4 hPa | 0 mm | - | 57 W/m² | - |
* Rain latest hour (hover to see other rain measurements)
** Current wind speed in m/s (hover to see current wind gust speed)